Weather History for Eindhoven, Netherlands

Change the Weather History Date:

Thursday, February 7, 2013

  Actual Average Record
Temperature  
Mean Temperature 35 °F -  
Max Temperature 40 °F 45 °F 55 °F (2001)
Min Temperature 30 °F 33 °F 6 °F (2012)
Degree Days  
Heating Degree Days 30    
Moisture  
Dew Point 33 °F    
Average Humidity 95    
Maximum Humidity 100    
Minimum Humidity 78    
Precipitation  
Precipitation 0.08 in - - ()
Sea Level Pressure  
Sea Level Pressure 29.85 in    
Wind  
Wind Speed 6 mph ()    
Max Wind Speed 12 mph    
Max Gust Speed 25 mph    
Visibility 6.3 miles    
Events Rain , Snow    
Averages and records for this station are not official NWS values.
T = Trace of Precipitation, MM = Missing Value Source: Averaged Metar Reports

Daily Weather History Graph

Daily Weather History Graph

Search for Another Location

Airport:

Trip Planner

Search our weather history database for the weather conditions in past years. The results will help you decide how hot, cold, wet, or windy it might be!

Date:

Astronomy

Feb. 07, 2013 Rise Set
Actual Time 8:06 AM CET 5:39 PM CET
Civil Twilight 7:31 AM CET 6:14 PM CET
Nautical Twilight 6:51 AM CET 6:54 PM CET
Astronomical Twilight 6:13 AM CET 7:33 PM CET
Moon 5:44 AM CET (2/7) 2:34 PM CET (2/7)
Length of Visible Light 10h 43m
Length of Day
9h 32m
Waning Crescent, 11% of the Moon is Illuminated
Feb 7
Waning Crescent
Feb 10
New
Feb 17
First Quarter
Feb 25
Full
Mar 4
Last Quarter

Hourly Weather History & Observations

Time (CET) Temp. Windchill Dew Point Humidity Pressure Visibility Wind Dir Wind Speed Gust Speed Precip Events Conditions
12:25 AM 35.6 °F 29.9 °F 33.8 °F 93% 29.77 in 6.2 mi WNW 6.9 mph - N/A   Unknown
12:55 AM 33.8 °F 28.6 °F 32.0 °F 93% 29.77 in 6.2 mi WNW 5.8 mph - N/A   Unknown
1:00 AM 35 °F - 33 °F 89% 29.79 in 12 mi WNW 6.7 mph - -   Partly Cloudy
1:25 AM 35.6 °F 29.9 °F 32.0 °F 87% 29.77 in 6.2 mi WNW 6.9 mph - N/A   Unknown
1:55 AM 35.6 °F 29.9 °F 32.0 °F 87% 29.77 in 6.2 mi WNW 6.9 mph - N/A   Unknown
2:25 AM 33.8 °F 28.6 °F 32.0 °F 93% 29.77 in 6.2 mi West 5.8 mph - N/A   Unknown
2:43 AM 33.8 °F 28.6 °F 32.0 °F 93% 29.77 in 6.2 mi West 5.8 mph - N/A   Scattered Clouds
2:50 AM 33.8 °F 28.6 °F 32.0 °F 93% 29.80 in 6.2 mi West 5.8 mph - N/A   Mostly Cloudy
2:55 AM 33.8 °F 27.7 °F 32.0 °F 93% 29.80 in 6.2 mi West 6.9 mph - N/A   Mostly Cloudy
3:25 AM 33.8 °F 28.6 °F 32.0 °F 93% 29.80 in 6.2 mi West 5.8 mph - N/A   Mostly Cloudy
3:55 AM 35.6 °F 28.6 °F 33.8 °F 93% 29.80 in 6.2 mi WNW 9.2 mph - N/A   Mostly Cloudy
4:00 AM 35 °F - 33 °F 89% 29.81 in 9 mi WNW 8.9 mph - - Rain Light Rain Showers
4:01 AM 35.6 °F 28.6 °F 33.8 °F 93% 29.80 in 6.2 mi WNW 9.2 mph - N/A Rain Light Rain
4:04 AM 35.6 °F 29.2 °F 33.8 °F 93% 29.80 in 6.2 mi WNW 8.1 mph - N/A   Mostly Cloudy
4:25 AM 35.6 °F 29.9 °F 33.8 °F 93% 29.80 in 6.2 mi WNW 6.9 mph - N/A   Mostly Cloudy
4:29 AM 35.6 °F 30.7 °F 33.8 °F 93% 29.80 in 6.2 mi WNW 5.8 mph - N/A   Mostly Cloudy
4:37 AM 35.6 °F 31.7 °F 33.8 °F 93% 29.80 in 6.2 mi WNW 4.6 mph - N/A   Mostly Cloudy
4:44 AM 35.6 °F 30.7 °F 33.8 °F 93% 29.80 in 6.2 mi WNW 5.8 mph - N/A   Overcast
4:55 AM 35.6 °F 30.7 °F 33.8 °F 93% 29.80 in 6.2 mi WNW 5.8 mph - N/A   Scattered Clouds
5:25 AM 33.8 °F 27.7 °F 33.8 °F 100% 29.80 in 6.2 mi West 6.9 mph - N/A   Mostly Cloudy
5:32 AM 33.8 °F 28.6 °F 33.8 °F 100% 29.80 in 3.7 mi West 5.8 mph - N/A   Mostly Cloudy
5:33 AM 33.8 °F 27.7 °F 33.8 °F 100% 29.80 in - WNW 6.9 mph - N/A Rain Rain
5:40 AM 33.8 °F 27.0 °F 33.8 °F 100% 29.80 in - WNW 8.1 mph - N/A Rain , Snow Rain Showers
5:44 AM 33.8 °F 26.4 °F 33.8 °F 100% 29.80 in 3.7 mi WNW 9.2 mph - N/A Rain , Snow Light Rain Showers
5:55 AM 33.8 °F 26.4 °F 33.8 °F 100% 29.80 in 6.2 mi WNW 9.2 mph - N/A Rain Light Rain
6:25 AM 35.6 °F 28.6 °F 33.8 °F 93% 29.80 in 6.2 mi WNW 9.2 mph - N/A Rain Light Rain
6:55 AM 33.8 °F 27.7 °F 33.8 °F 100% 29.80 in 6.2 mi West 6.9 mph - N/A   Mostly Cloudy
7:00 AM 34 °F - 33 °F 96% 29.83 in 9 mi West 6.7 mph - - Rain Rain
7:25 AM 33.8 °F 27.0 °F 33.8 °F 100% 29.83 in 6.2 mi West 8.1 mph - N/A Rain Light Rain
7:55 AM 35.6 °F 30.7 °F 33.8 °F 93% 29.83 in 5.6 mi WNW 5.8 mph - N/A Rain Light Rain
8:25 AM 35.6 °F 29.9 °F 33.8 °F 93% 29.83 in 6.2 mi WNW 6.9 mph - N/A   Unknown
8:55 AM 35.6 °F 30.7 °F 33.8 °F 93% 29.83 in 6.2 mi WNW 5.8 mph - N/A   Partly Cloudy
9:25 AM 35.6 °F 30.7 °F 33.8 °F 93% 29.86 in 6.2 mi West 5.8 mph - N/A   Scattered Clouds
9:55 AM 35.6 °F 31.7 °F 35.6 °F 100% 29.86 in 6.2 mi WSW 4.6 mph - N/A   Partly Cloudy
10:00 AM 36 °F - 35 °F 95% 29.88 in 12 mi West 4.5 mph - -   Partly Cloudy
10:25 AM 37.4 °F 32.1 °F 35.6 °F 93% 29.86 in 6.2 mi WNW 6.9 mph - N/A   Mostly Cloudy
10:55 AM 37.4 °F 32.8 °F 35.6 °F 93% 29.89 in 6.2 mi NW 5.8 mph - N/A   Mostly Cloudy
11:25 AM 37.4 °F 32.1 °F 35.6 °F 93% 29.89 in 6.2 mi NNW 6.9 mph - N/A Rain Light Rain
11:55 AM 39.2 °F 34.2 °F 35.6 °F 87% 29.89 in 6.2 mi WNW 6.9 mph - N/A Rain Light Rain
12:25 PM 39.2 °F 34.2 °F 35.6 °F 87% 29.89 in 6.2 mi West 6.9 mph - N/A   Mostly Cloudy
12:55 PM 41.0 °F 35.2 °F 35.6 °F 81% 29.86 in 6.2 mi NW 9.2 mph - N/A   Overcast
1:00 PM 40 °F - 36 °F 78% 29.88 in 16 mi NW 8.9 mph - - Rain Rain
1:25 PM 35.6 °F 27.5 °F 33.8 °F 93% 29.86 in - NW 11.5 mph 25.3 mph N/A Rain Rain Showers
1:55 PM 37.4 °F 32.8 °F 35.6 °F 93% 29.86 in 6.2 mi NW 5.8 mph - N/A   Mostly Cloudy
2:25 PM 39.2 °F 34.2 °F 35.6 °F 87% 29.86 in 6.2 mi WNW 6.9 mph - N/A   Partly Cloudy
2:55 PM 41.0 °F 35.8 °F 35.6 °F 81% 29.86 in 6.2 mi WNW 8.1 mph - N/A   Mostly Cloudy
3:15 PM 35.6 °F 28.6 °F 35.6 °F 100% 29.86 in 4.3 mi NNW 9.2 mph - N/A Rain Light Rain
3:17 PM 35.6 °F 28.6 °F 35.6 °F 100% 29.86 in 6.2 mi NNW 9.2 mph - N/A Rain Light Rain
3:25 PM 35.6 °F 29.9 °F 35.6 °F 100% 29.86 in 6.2 mi NW 6.9 mph - N/A Rain Light Rain
3:27 PM 35.6 °F 30.7 °F 35.6 °F 100% 29.86 in 6.2 mi NW 5.8 mph - N/A   Mostly Cloudy
3:43 PM 35.6 °F 30.7 °F 35.6 °F 100% 29.86 in 6.2 mi WNW 5.8 mph - N/A   Mostly Cloudy
3:55 PM 37.4 °F 32.8 °F 35.6 °F 93% 29.86 in 6.2 mi West 5.8 mph - N/A   Unknown
4:00 PM 36 °F - 35 °F 95% 29.88 in 19 mi West 6.7 mph - - Rain Rain
4:25 PM 37.4 °F 32.8 °F 35.6 °F 93% 29.86 in 6.2 mi West 5.8 mph - N/A   Overcast
4:55 PM 35.6 °F 29.2 °F 33.8 °F 93% 29.89 in 6.2 mi WNW 8.1 mph - N/A   Mostly Cloudy
5:25 PM 35.6 °F 31.7 °F 32.0 °F 87% 29.89 in 6.2 mi NW 4.6 mph - N/A   Scattered Clouds
5:55 PM 35.6 °F 31.7 °F 33.8 °F 93% 29.89 in 6.2 mi West 4.6 mph - N/A   Overcast
6:00 PM 35.6 °F 31.7 °F 33.8 °F 93% 29.89 in 6.2 mi WSW 4.6 mph - N/A   Mostly Cloudy
6:25 PM 35.6 °F 29.9 °F 33.8 °F 93% 29.89 in 6.2 mi West 6.9 mph - N/A   Mostly Cloudy
6:55 PM 33.8 °F 29.6 °F 33.8 °F 100% 29.89 in 6.2 mi West 4.6 mph - N/A   Mostly Cloudy
7:00 PM 34 °F - 33 °F 94% 29.91 in 16 mi West 4.5 mph - - Rain Rain
7:07 PM 33.8 °F 29.6 °F 32.0 °F 93% 29.89 in 6.2 mi West 4.6 mph - N/A   Mostly Cloudy
7:25 PM 33.8 °F 29.6 °F 32.0 °F 93% 29.89 in 6.2 mi West 4.6 mph - N/A   Mostly Cloudy
7:55 PM 32.0 °F 26.4 °F 32.0 °F 100% 29.89 in 6.2 mi WSW 5.8 mph - N/A   Mostly Cloudy
8:10 PM 33.8 °F 28.6 °F 32.0 °F 93% 29.89 in 6.2 mi WSW 5.8 mph - N/A   Mostly Cloudy
8:18 PM 33.8 °F 27.7 °F 33.8 °F 100% 29.89 in 6.2 mi WSW 6.9 mph - N/A   Overcast
8:25 PM 33.8 °F 27.7 °F 33.8 °F 100% 29.89 in 6.2 mi WSW 6.9 mph - N/A   Overcast
8:42 PM 33.8 °F 27.7 °F 32.0 °F 93% 29.89 in 6.2 mi WSW 6.9 mph - N/A   Scattered Clouds
8:46 PM 33.8 °F 28.6 °F 32.0 °F 93% 29.89 in 6.2 mi WSW 5.8 mph - N/A   Mostly Cloudy
8:51 PM 32.0 °F 26.4 °F 32.0 °F 100% 29.89 in 6.2 mi WSW 5.8 mph - N/A   Mostly Cloudy
8:55 PM 33.8 °F 29.6 °F 32.0 °F 93% 29.89 in 5.6 mi WSW 4.6 mph - N/A   Mostly Cloudy
9:25 PM 32.0 °F 25.6 °F 32.0 °F 100% 29.89 in 4.3 mi WSW 6.9 mph - N/A   Scattered Clouds
9:38 PM 32.0 °F 26.4 °F 32.0 °F 100% 29.89 in 4.3 mi WSW 5.8 mph - N/A   Mist
9:41 PM 32.0 °F 26.4 °F 32.0 °F 100% 29.89 in 5.0 mi WSW 5.8 mph - N/A   Mist
9:46 PM 32.0 °F 26.4 °F 32.0 °F 100% 29.89 in 4.3 mi WSW 5.8 mph - N/A   Partly Cloudy
9:50 PM 32.0 °F 26.4 °F 32.0 °F 100% 29.89 in 5.0 mi WSW 5.8 mph - N/A   Partly Cloudy
9:55 PM 32.0 °F 26.4 °F 32.0 °F 100% 29.89 in 5.0 mi West 5.8 mph - N/A   Partly Cloudy
10:00 PM 32 °F - 32 °F 98% 29.91 in 6 mi West 4.5 mph - -   Mist
10:02 PM 32.0 °F 26.4 °F 32.0 °F 100% 29.89 in 5.6 mi West 5.8 mph - N/A   Scattered Clouds
10:07 PM 32.0 °F 27.5 °F 30.2 °F 93% 29.89 in 5.6 mi WSW 4.6 mph - N/A   Partly Cloudy
10:16 PM 30.2 °F 24.3 °F 30.2 °F 100% 29.89 in 5.6 mi WSW 5.8 mph - N/A   Mist
10:20 PM 32.0 °F 26.4 °F 30.2 °F 93% 29.89 in 4.3 mi WSW 5.8 mph - N/A   Partly Cloudy
10:25 PM 32.0 °F 26.4 °F 32.0 °F 100% 29.89 in 5.0 mi WSW 5.8 mph - N/A   Partly Cloudy
10:32 PM 32.0 °F 25.6 °F 32.0 °F 100% 29.89 in 5.6 mi WSW 6.9 mph - N/A   Scattered Clouds
10:46 PM 32.0 °F 26.4 °F 32.0 °F 100% 29.89 in 4.3 mi WSW 5.8 mph - N/A   Overcast
10:55 PM 32.0 °F 25.6 °F 32.0 °F 100% 29.89 in 4.3 mi WSW 6.9 mph - N/A   Mostly Cloudy
11:25 PM 32.0 °F 25.6 °F 32.0 °F 100% 29.89 in 4.3 mi WSW 6.9 mph - N/A   Overcast
11:29 PM 32.0 °F 25.6 °F 32.0 °F 100% 29.89 in 5.0 mi WSW 6.9 mph - N/A   Overcast
11:33 PM 32.0 °F 25.6 °F 32.0 °F 100% 29.89 in 4.3 mi WSW 6.9 mph - N/A   Overcast
11:37 PM 32.0 °F 25.6 °F 32.0 °F 100% 29.89 in 5.0 mi WSW 6.9 mph - N/A   Overcast
11:43 PM 33.8 °F 27.7 °F 33.8 °F 100% 29.89 in 5.6 mi West 6.9 mph - N/A   Mostly Cloudy
11:47 PM 33.8 °F 27.7 °F 33.8 °F 100% 29.89 in 5.6 mi West 6.9 mph - N/A   Overcast
11:48 PM 33.8 °F 27.7 °F 33.8 °F 100% 29.89 in 3.1 mi West 6.9 mph - N/A Snow Light Snow
11:55 PM 33.8 °F 27.0 °F 33.8 °F 100% 29.89 in - West 8.1 mph - N/A Snow Light Snow
11:59 PM 32.0 °F 24.2 °F 32.0 °F 100% 29.89 in 1.6 mi West 9.2 mph - N/A Snow Light Snow